• In Spain
  • List of Countries
  • For 7 days
  • Water Temperature
  • Satellite Maps
  • Weather Map
  • Weather Widgets
  • user-avatar
    Login

    Hourly Weather Kranevo

    Today, 23 September, Sunday

    Time Temperature Precipitation Wind Pressure Humidity
    00:00 +20°C° 0 mm 2 mps 758 mmHg 73%
    01:00 +20°C° 0 mm 2 mps 758 mmHg 71%
    02:00 +20°C° 0 mm 3 mps 757 mmHg 68%
    03:00 +20°C° 0 mm 3 mps 758 mmHg 64%
    04:00 +20°C° 0 mm 3 mps 758 mmHg 60%
    05:00 +20°C° 0 mm 3 mps 758 mmHg 56%
    06:00 +20°C° 0 mm 3 mps 758 mmHg 56%
    07:00 +20°C° 0 mm 4 mps 759 mmHg 56%
    08:00 +21°C° 0 mm 4 mps 759 mmHg 56%
    09:00 +22°C° 0 mm 4 mps 759 mmHg 54%
    10:00 +23°C° 0 mm 4 mps 760 mmHg 52%
    11:00 +25°C° 0 mm 4 mps 760 mmHg 49%
    12:00 +26°C° 0 mm 3 mps 760 mmHg 48%
    13:00 +27°C° 0 mm 3 mps 759 mmHg 46%
    14:00 +28°C° 0 mm 3 mps 759 mmHg 44%
    15:00 +27°C° 0 mm 3 mps 759 mmHg 48%
    16:00 +26°C° 0 mm 4 mps 759 mmHg 53%
    17:00 +26°C° 0 mm 4 mps 759 mmHg 57%
    18:00 +23°C° 0 mm 4 mps 759 mmHg 65%
    19:00 +22°C° 0 mm 4 mps 759 mmHg 74%
    20:00 +20°C° 0 mm 4 mps 759 mmHg 82%
    21:00 +20°C° 0 mm 4 mps 759 mmHg 84%
    22:00 +20°C° 0 mm 4 mps 759 mmHg 87%
    23:00 +20°C° 0 mm 3 mps 759 mmHg 89%

    Tomorrow, 24 September, Monday

    Time Temperature Precipitation Wind Pressure Humidity
    00:00 +20°C° 0 mm 4 mps 759 mmHg 91%
    01:00 +20°C° 0 mm 4 mps 758 mmHg 92%
    02:00 +20°C° 0 mm 4 mps 758 mmHg 94%
    03:00 +20°C° 0 mm 4 mps 757 mmHg 94%
    04:00 +20°C° 0 mm 4 mps 757 mmHg 95%
    05:00 +20°C° 0 mm 4 mps 756 mmHg 95%
    06:00 +21°C° 0 mm 5 mps 756 mmHg 89%
    07:00 +22°C° 0 mm 5 mps 755 mmHg 83%
    08:00 +23°C° 0 mm 5 mps 755 mmHg 78%
    09:00 +26°C° 0 mm 6 mps 755 mmHg 66%
    10:00 +28°C° 0 mm 6 mps 754 mmHg 55%
    11:00 +30°C° 0 mm 7 mps 754 mmHg 44%
    12:00 +32°C° 0 mm 7 mps 753 mmHg 40%
    13:00 +33°C° 0 mm 7 mps 753 mmHg 37%
    14:00 +34°C° 0 mm 6 mps 752 mmHg 33%
    15:00 +33°C° 0 mm 6 mps 752 mmHg 35%
    16:00 +33°C° 0 mm 6 mps 752 mmHg 36%
    17:00 +32°C° 0 mm 5 mps 752 mmHg 38%
    18:00 +28°C° 0 mm 7 mps 754 mmHg 41%
    19:00 +26°C° 0 mm 9 mps 755 mmHg 45%
    20:00 +22°C° 0 mm 10 mps 756 mmHg 48%
    21:00 +19°C° 0 mm 10 mps 757 mmHg 53%
    22:00 +18°C° 0 mm 9 mps 758 mmHg 58%
    23:00 +16°C° 0 mm 9 mps 759 mmHg 63%

    Day after tomorrow, 25 September, Tuesday

    Time Temperature Precipitation Wind Pressure Humidity
    00:00 +16°C° 0.1 mm 8 mps 760 mmHg 61%
    01:00 +16°C° 0.1 mm 7 mps 760 mmHg 59%
    02:00 +15°C° 0.1 mm 6 mps 761 mmHg 58%
    03:00 +15°C° 0 mm 5 mps 761 mmHg 56%
    04:00 +15°C° 0 mm 5 mps 761 mmHg 55%
    05:00 +15°C° 0 mm 4 mps 761 mmHg 53%
    06:00 +15°C° 0 mm 4 mps 762 mmHg 52%
    07:00 +15°C° 0 mm 4 mps 763 mmHg 52%
    08:00 +15°C° 0 mm 4 mps 763 mmHg 51%
    09:00 +17°C° 0 mm 4 mps 763 mmHg 47%
    10:00 +17°C° 0 mm 4 mps 764 mmHg 43%
    11:00 +17°C° 0 mm 5 mps 764 mmHg 39%
    12:00 +17°C° 0 mm 5 mps 764 mmHg 37%
    13:00 +17°C° 0 mm 5 mps 763 mmHg 34%
    14:00 +17°C° 0 mm 6 mps 763 mmHg 32%
    15:00 +17°C° 0 mm 6 mps 764 mmHg 32%
    16:00 +17°C° 0 mm 6 mps 764 mmHg 32%
    17:00 +16°C° 0 mm 6 mps 764 mmHg 32%
    18:00 +15°C° 0 mm 6 mps 765 mmHg 37%
    19:00 +14°C° 0 mm 6 mps 765 mmHg 41%
    20:00 +12°C° 0 mm 7 mps 766 mmHg 45%
    21:00 +11°C° 0 mm 6 mps 766 mmHg 46%
    22:00 +11°C° 0 mm 6 mps 767 mmHg 46%
    23:00 +10°C° 0 mm 6 mps 767 mmHg 47%

    26 September, Wednesday

    Time Temperature Precipitation Wind Pressure Humidity
    00:00 +10°C° 0 mm 7 mps 767 mmHg 48%
    01:00 +9°C° 0 mm 7 mps 768 mmHg 49%
    02:00 +9°C° 0 mm 7 mps 768 mmHg 49%
    03:00 +8°C° 0 mm 7 mps 768 mmHg 51%
    04:00 +8°C° 0 mm 7 mps 768 mmHg 52%
    05:00 +6°C° 0 mm 7 mps 768 mmHg 54%
    06:00 +7°C° 0 mm 8 mps 769 mmHg 52%
    07:00 +9°C° 0 mm 8 mps 769 mmHg 51%
    08:00 +8°C° 0 mm 9 mps 769 mmHg 49%
    09:00 +11°C° 0 mm 9 mps 769 mmHg 45%
    10:00 +12°C° 0 mm 9 mps 769 mmHg 41%
    11:00 +13°C° 0 mm 9 mps 769 mmHg 37%
    12:00 +15°C° 0 mm 9 mps 769 mmHg 35%
    13:00 +15°C° 0 mm 9 mps 769 mmHg 34%
    14:00 +16°C° 0 mm 9 mps 768 mmHg 32%
    15:00 +15°C° 0 mm 8 mps 768 mmHg 33%
    16:00 +15°C° 0 mm 8 mps 768 mmHg 33%
    17:00 +13°C° 0 mm 8 mps 768 mmHg 33%
    18:00 +12°C° 0 mm 8 mps 769 mmHg 35%
    19:00 +11°C° 0 mm 7 mps 769 mmHg 37%
    20:00 +10°C° 0 mm 7 mps 769 mmHg 39%
    21:00 +9°C° 0 mm 7 mps 769 mmHg 39%
    22:00 +9°C° 0 mm 7 mps 769 mmHg 39%
    23:00 +8°C° 0 mm 7 mps 769 mmHg 40%

    27 September, Thursday

    Time Temperature Precipitation Wind Pressure Humidity
    00:00 +8°C° 0 mm 7 mps 769 mmHg 41%
    01:00 +7°C° 0 mm 6 mps 769 mmHg 43%
    02:00 +7°C° 0 mm 6 mps 768 mmHg 44%
    03:00 +5°C° 0 mm 6 mps 768 mmHg 45%
    04:00 +5°C° 0 mm 6 mps 768 mmHg 47%
    05:00 +5°C° 0 mm 6 mps 768 mmHg 49%
    06:00 +7°C° 0 mm 6 mps 767 mmHg 47%
    07:00 +8°C° 0 mm 7 mps 767 mmHg 44%
    08:00 +9°C° 0 mm 7 mps 767 mmHg 42%
    09:00 +11°C° 0 mm 7 mps 767 mmHg 38%
    10:00 +13°C° 0 mm 6 mps 767 mmHg 35%
    11:00 +15°C° 0 mm 6 mps 767 mmHg 31%
    12:00 +16°C° 0 mm 6 mps 766 mmHg 29%
    13:00 +17°C° 0 mm 6 mps 765 mmHg 27%
    14:00 +19°C° 0 mm 6 mps 765 mmHg 25%
    15:00 +17°C° 0 mm 6 mps 764 mmHg 26%
    16:00 +17°C° 0 mm 5 mps 764 mmHg 27%
    17:00 +17°C° 0 mm 5 mps 764 mmHg 28%
    18:00 +15°C° 0 mm 5 mps 763 mmHg 32%
    19:00 +14°C° 0 mm 4 mps 763 mmHg 37%
    20:00 +12°C° 0 mm 4 mps 763 mmHg 42%
    21:00 +12°C° 0 mm 4 mps 763 mmHg 45%
    22:00 +12°C° 0 mm 4 mps 763 mmHg 47%
    23:00 +12°C° 0 mm 4 mps 763 mmHg 50%

    28 September, Friday

    Time Temperature Precipitation Wind Pressure Humidity
    00:00 +12°C° 0 mm 4 mps 763 mmHg 48%
    01:00 +12°C° 0 mm 4 mps 762 mmHg 46%
    02:00 +12°C° 0 mm 5 mps 762 mmHg 45%
    03:00 +12°C° 0 mm 5 mps 762 mmHg 43%
    04:00 +12°C° 0 mm 5 mps 762 mmHg 40%
    05:00 +12°C° 0 mm 5 mps 762 mmHg 38%
    06:00 +13°C° 0 mm 6 mps 761 mmHg 36%
    07:00 +14°C° 0 mm 6 mps 761 mmHg 34%
    08:00 +15°C° 0 mm 6 mps 761 mmHg 31%
    09:00 +17°C° 0 mm 6 mps 761 mmHg 34%
    10:00 +19°C° 0 mm 6 mps 761 mmHg 37%
    11:00 +21°C° 0 mm 6 mps 761 mmHg 40%
    12:00 +21°C° 0 mm 6 mps 761 mmHg 41%
    13:00 +22°C° 0 mm 6 mps 760 mmHg 43%
    14:00 +23°C° 0 mm 6 mps 760 mmHg 45%
    15:00 +22°C° 0 mm 6 mps 760 mmHg 48%
    16:00 +22°C° 0 mm 6 mps 759 mmHg 51%
    17:00 +21°C° 0 mm 5 mps 759 mmHg 55%
    18:00 +20°C° 0 mm 5 mps 759 mmHg 63%
    19:00 +17°C° 0 mm 5 mps 760 mmHg 71%
    20:00 +17°C° 0 mm 4 mps 760 mmHg 79%
    21:00 +17°C° 0 mm 4 mps 760 mmHg 81%
    22:00 +15°C° 0 mm 4 mps 760 mmHg 83%
    23:00 +15°C° 0 mm 4 mps 760 mmHg 84%
    Show more